Regional Weather Roundup
Issued by NWS Goodland, KS

Home | Current Version | Previous Version | Graphics & Text | Print | Product List | Glossary On
Versions: 1 2 3 4 5 6 7 8 9 10 11 12 13 14 15 16 17 18 19 20 21 22 23 24 25 26 27 28 29 30 31 32 33 34 35 36 37 38 39 40 41 42 43 44 45 46 47 48 49 50
000
ASUS43 KGLD 011508
RWRGLD

GOODLAND FORECAST AREA HOURLY WEATHER ROUNDUP
NATIONAL WEATHER SERVICE GOODLAND KS
900 AM MDT WED OCT 01 2014

...OFFICIAL OBSERVATIONS...

CITY           SKY/WX    TMP DP  RH WIND       PRES   REMARKS
GOODLAND KS    SUNNY     60  46  59 N8        29.87S
HILL CITY KS   CLOUDY    62  60  93 NE5       29.80S
IMPERIAL NEB   MOSUNNY   56  46  69 NW9       29.84R
MCCOOK NEB     SUNNY     61  51  70 N6        29.81F
AKRON CO       PTSUNNY   55  41  59 NW7       29.90R
BURLINGTON CO  SUNNY     61  42  49 N5        29.88S
LIMON CO       PTSUNNY   53  42  66 NE3       29.93S
$$

...UNOFFICIAL OBSERVATIONS...

CITY           SKY/WX    TMP DP  RH WIND       PRES   REMARKS
COLBY KS       SUNNY     64  50  59 NW12      29.84S
GOVE KS          N/A     63  32  31 MISG        N/A
NORTON KS      PTSUNNY   61  57  88 W5        29.79
SHARON SPRINGS   N/A     60  48  64 NE8         N/A
TRENTON NEB      N/A     61  32  33 NW13        N/A
KIT CARSON CO    N/A     60  44  55 MISG        N/A
YUMA CO          N/A     53  46  78 CALM        N/A
$$



USA.gov is the U.S. government's official web portal to all federal, state and local government web resources and services.